#timestamp,LO_Frequency,Hit,StdDev 
1647918015.7,286046999.9,P
1647918035.5,286046999.1,N
1647918055.4,286046999.2,N
1647918075.2,286046996.8,N
1647918095.0,286046997.1,N
1647918095.9,286046997.1,N
1647918115.8,286046999.3,N
1647918135.6,286046998.3,N
1647918155.5,286046996.9,N
1647918175.3,286046999.2,N
1647918195.1,286046997.9,N
1647918215.9,286046998.0,N
1647918235.7,286046998.0,N
1647918255.5,286046998.0,N
1647918275.4,286046997.3,N
1647918295.2,286046994.9,Y
1647918315.1,286046997.2,P
1647918316.0,286046997.2,P
1647918335.8,286046998.0,P
1647918355.6,286046995.0,Y
1647918375.5,286046998.7,P
1647918395.3,286046998.4,P
1647918415.2,286047000.7,N
1647918435.9,286047000.9,N
1647918455.7,286046997.3,N
1647918475.6,286046997.6,N
1647918495.4,286046997.2,N
1647918515.2,286046995.4,Y
1647918535.1,286046997.9,P
1647918536.0,286046997.9,P
1647918555.8,286046998.9,P
1647918575.7,286046998.6,Y
1647918595.5,286047002.5,P
1647918615.3,286047001.6,N
1647918635.2,286047001.6,N
1647918655.0,286047001.9,N
1647918655.9,286047001.9,N
1647918675.8,286047000.1,N
1647918695.6,286047001.0,N
1647918715.4,286047001.0,N
1647918735.3,286046998.5,N
1647918755.1,286046999.3,N
1647918775.8,286046999.0,N
1647918795.7,286046996.8,N
1647918815.5,286046999.4,N
1647918835.4,286046999.3,N
1647918855.2,286046999.0,N
1647918875.0,286046999.3,N
1647918875.9,286046999.3,N
1647918895.8,286046998.7,N
1647918915.6,286046998.2,N
1647918935.4,286047000.2,N
1647918955.3,286047002.2,N
1647918975.1,286047001.7,N
1647918995.9,286047001.6,N
1647919015.7,286046999.9,N
1647919035.5,286046999.2,N
1647919055.4,286046997.7,N
1647919075.2,286046999.3,N
1647919095.0,286046996.9,N
1647919095.9,286046996.9,N
1647919115.8,286046997.1,N
1647919135.6,286046996.6,N
1647919155.5,286046999.5,N
1647919175.3,286046999.2,N
1647919195.1,286046999.0,N
1647919215.9,286046997.0,N
1647919235.7,286046997.6,N
1647919255.5,286046998.0,N
1647919275.4,286046997.8,N
1647919295.2,286046995.4,Y
1647919315.1,286046999.0,P
1647919316.0,286046999.0,P
1647919335.8,286046998.9,P
1647919355.6,286046999.1,Y
1647919375.5,286046998.2,P
1647919395.3,286047000.1,N
1647919415.2,286047002.8,P
1647919435.9,286047000.8,N
1647919455.7,286047000.1,N
1647919475.6,286047002.7,N
1647919495.4,286047002.6,N
1647919515.3,286047002.2,N
1647919535.1,286047000.4,N
1647919536.0,286047000.4,N
1647919555.8,286047001.1,N
1647919575.7,286047000.3,N
1647919595.5,286047000.6,N
1647919615.3,286046999.9,N
1647919635.2,286046999.9,N
1647919655.0,286046998.8,N
1647919655.9,286046998.8,N
1647919675.8,286046998.3,N
1647919695.6,286046997.0,N
1647919715.4,286046997.1,N
1647919735.3,286046996.0,N
1647919755.1,286046995.7,N
1647919775.8,286046994.9,N
1647919795.7,286046995.6,N
1647919815.5,286046995.3,N
1647919835.4,286046995.7,N
1647919855.2,286046995.3,N
1647919875.0,286046997.5,N
1647919875.9,286046997.5,N
1647919895.8,286046997.6,N
1647919915.6,286046996.3,N
1647919935.5,286046993.8,N
1647919955.3,286046994.8,N
1647919975.1,286046992.0,Y
1647919995.9,286046995.7,P
1647920015.7,286046997.5,N
1647920035.5,286046997.8,N
1647920055.4,286046998.0,N
1647920075.2,286046998.9,N
1647920095.1,286046999.4,N
1647920096.0,286046999.4,N
1647920115.8,286047000.9,N
1647920135.6,286046996.6,N
1647920155.5,286046995.2,Y
1647920175.3,286046998.4,P
1647920195.2,286046998.1,P
1647920215.9,286046998.5,P
1647920235.7,286047001.1,Y
1647920255.6,286047000.0,P
1647920275.4,286047002.7,P
1647920295.3,286047000.6,N
1647920315.1,286047000.7,N
1647920316.0,286047000.7,N
1647920335.8,286046998.9,N
1647920355.7,286047000.8,N
1647920375.5,286047002.1,N
1647920395.3,286046999.7,N
1647920415.2,286046996.8,N
1647920435.0,286046997.1,N
1647920435.9,286046997.1,N
1647920455.8,286046999.5,N
1647920475.6,286046998.7,N
1647920495.4,286046998.7,N
1647920515.3,286046996.6,N
1647920535.1,286046996.6,N
1647920555.8,286046998.8,N
1647920575.7,286046998.3,N
1647920595.5,286046999.1,N
1647920615.4,286047001.2,N
1647920635.2,286047002.4,N
1647920655.0,286046999.7,N
1647920675.8,286046998.9,N
1647920695.7,286046998.1,N
1647920715.5,286046998.1,N
1647920735.4,286046998.1,N
1647920755.2,286047000.6,N
1647920775.0,286047000.1,N
1647920775.9,286047000.1,N
1647920795.8,286047000.7,N
1647920815.6,286047000.8,N
1647920835.5,286047000.8,N
1647920855.3,286047000.0,N
1647920875.1,286047000.9,N
1647920895.9,286047001.1,N
1647920915.7,286046998.1,N
1647920935.5,286047000.9,N
1647920955.4,286047001.2,N
1647920975.2,286047000.3,N
1647920995.1,286047002.7,N
1647920996.0,286047002.7,N
1647921015.8,286047000.1,N
1647921035.6,286047002.2,N
1647921055.5,286047002.8,N
1647921075.3,286047002.8,N
1647921095.2,286047001.6,N
1647921115.9,286047001.9,N
1647921135.7,286047002.4,N
1647921155.6,286046999.8,N
1647921175.4,286046999.7,N
1647921195.2,286047000.1,N
1647921215.1,286047002.7,N
1647921216.0,286047002.7,N
1647921235.8,286047002.1,N
1647921255.7,286047003.1,N
1647921275.5,286047002.1,N
1647921295.3,286047004.0,Y
1647921315.2,286047002.4,P
1647921335.0,286047000.2,N
1647921335.9,286047000.2,N
1647921355.8,286046999.9,N
1647921375.6,286046999.8,N
1647921395.4,286047000.8,N
1647921415.3,286047000.6,N
1647921435.1,286047001.8,N
1647921436.0,286047001.8,N
1647921455.8,286047001.6,N
1647921475.7,286047002.6,Y
1647921495.5,286047000.0,P
1647921515.4,286047002.3,P
1647921535.2,286047002.3,N
1647921555.0,286047002.5,N
1647921555.9,286047002.5,N
1647921575.8,286046999.8,N
1647921595.6,286046999.7,N
